DLH8YH EDDM-EGCC

Flight info

Callsign DLH8YH
Flight time N/A
Altitude 34000
Route INPUD2N INPUD Y102 ALIBU DCT MASEK DCT ARPEG DCT GALSO Q63 ERING L179 LAM UN57 WELIN T420 ELVOS
Aircraft A21N/M-SDE2E3FGIJ1LORWXYZ/HB1

Departure

Time N/A
Airport Munich Airport (EDDM)

Arrival

Time 2026-05-05 09:40
Airport Manchester Airport (EGCC)
Time Latitude Longitude Altitude Speed Heading
2026-05-05 08:29 51.35420 6.10511 33875 ft 365 kts 278°
2026-05-05 08:30 51.36552 6.02554 33879 ft 365 kts 278°
2026-05-05 08:30 51.37678 5.94606 33881 ft 365 kts 278°
2026-05-05 08:31 51.38790 5.86716 33886 ft 365 kts 278°
2026-05-05 08:31 51.39904 5.78765 33893 ft 365 kts 278°
2026-05-05 08:32 51.41014 5.70804 33900 ft 365 kts 278°
2026-05-05 08:32 51.42113 5.62882 33906 ft 365 kts 278°
2026-05-05 08:33 51.43205 5.54970 33908 ft 365 kts 278°
2026-05-05 08:33 51.44295 5.47019 33910 ft 365 kts 278°
2026-05-05 08:34 51.45377 5.39088 33910 ft 365 kts 278°
2026-05-05 08:34 51.46453 5.31144 33911 ft 365 kts 278°
2026-05-05 08:35 51.47528 5.23170 33910 ft 365 kts 278°
2026-05-05 08:35 51.48593 5.15231 33910 ft 365 kts 278°
2026-05-05 08:36 51.49651 5.07304 33910 ft 365 kts 278°
2026-05-05 08:36 51.50711 4.99329 33910 ft 364 kts 277°
2026-05-05 08:37 51.51759 4.91408 33911 ft 362 kts 277°
2026-05-05 08:37 51.52789 4.83571 33911 ft 359 kts 277°
2026-05-05 08:38 51.53814 4.75723 33910 ft 357 kts 277°
2026-05-05 08:38 51.54821 4.67947 33910 ft 356 kts 277°
2026-05-05 08:39 51.55829 4.60130 33910 ft 357 kts 277°
2026-05-05 08:39 51.56812 4.52468 33910 ft 357 kts 277°
2026-05-05 08:40 51.57812 4.44636 33910 ft 357 kts 277°
2026-05-05 08:40 51.58797 4.36874 33910 ft 357 kts 277°
2026-05-05 08:41 51.59781 4.29061 33911 ft 356 kts 276°
2026-05-05 08:41 51.60761 4.21251 33910 ft 356 kts 276°
2026-05-05 08:42 51.61739 4.13409 33910 ft 356 kts 276°
2026-05-05 08:42 51.62707 4.05609 33910 ft 356 kts 276°
2026-05-05 08:43 51.63672 3.97786 33910 ft 356 kts 276°
2026-05-05 08:43 51.64627 3.89995 33910 ft 356 kts 276°
2026-05-05 08:44 51.65582 3.82162 33910 ft 356 kts 276°
2026-05-05 08:44 51.66526 3.74370 33910 ft 356 kts 276°
2026-05-05 08:45 51.67472 3.66514 33910 ft 356 kts 276°
2026-05-05 08:45 51.68406 3.58708 33910 ft 356 kts 276°
2026-05-05 08:46 51.69337 3.50875 33910 ft 356 kts 276°
2026-05-05 08:46 51.70269 3.42984 33909 ft 356 kts 276°
2026-05-05 08:47 51.71188 3.35146 33909 ft 356 kts 276°
2026-05-05 08:47 51.71882 3.28633 33910 ft 355 kts 273°
2026-05-05 08:48 51.72361 3.20748 33910 ft 353 kts 270°
2026-05-05 08:48 51.72441 3.12869 33910 ft 352 kts 266°
2026-05-05 08:49 51.72029 3.03692 33909 ft 351 kts 262°
2026-05-05 08:49 51.71395 2.95917 33910 ft 351 kts 261°
2026-05-05 08:50 51.70739 2.88091 33910 ft 351 kts 260°
2026-05-05 08:50 51.70068 2.80343 33910 ft 351 kts 260°
2026-05-05 08:51 51.69385 2.72575 33910 ft 351 kts 260°
2026-05-05 08:51 51.68697 2.64805 33910 ft 351 kts 260°
2026-05-05 08:52 51.67998 2.57003 33910 ft 351 kts 260°
2026-05-05 08:52 51.67298 2.49261 33909 ft 351 kts 260°
2026-05-05 08:53 51.66593 2.41506 33909 ft 351 kts 260°
2026-05-05 08:53 51.65884 2.33787 33914 ft 351 kts 259°
2026-05-05 08:54 51.65161 2.25963 33915 ft 351 kts 259°
2026-05-05 08:54 51.64441 2.18248 33921 ft 351 kts 259°
2026-05-05 08:55 51.63712 2.10496 33928 ft 350 kts 259°
2026-05-05 08:55 51.62996 2.02745 33933 ft 350 kts 259°
2026-05-05 08:56 51.62278 1.94995 33935 ft 350 kts 259°
2026-05-05 08:56 51.61556 1.87282 33936 ft 350 kts 259°
2026-05-05 08:57 51.60837 1.79649 33936 ft 350 kts 259°
2026-05-05 08:57 51.60109 1.71974 33936 ft 350 kts 260°
2026-05-05 08:58 51.59587 1.64231 33936 ft 352 kts 263°
2026-05-05 08:58 51.59443 1.56304 33940 ft 354 kts 266°
2026-05-05 08:59 51.59668 1.48426 33947 ft 355 kts 269°
2026-05-05 08:59 51.59976 1.40504 33954 ft 355 kts 269°
2026-05-05 09:00 51.60301 1.32562 33963 ft 355 kts 268°
2026-05-05 09:00 51.60632 1.24710 33963 ft 355 kts 268°
2026-05-05 09:01 51.60959 1.16745 33964 ft 355 kts 268°
2026-05-05 09:01 51.61274 1.08888 33965 ft 354 kts 268°
2026-05-05 09:02 51.61580 1.01038 33965 ft 353 kts 268°
2026-05-05 09:02 51.61881 0.93183 33965 ft 352 kts 268°
2026-05-05 09:03 51.62181 0.85299 33964 ft 352 kts 268°
2026-05-05 09:03 51.62471 0.77478 33964 ft 352 kts 268°
2026-05-05 09:04 51.62750 0.69844 33964 ft 352 kts 268°
2026-05-05 09:04 51.63031 0.62053 33964 ft 352 kts 268°
2026-05-05 09:05 51.63304 0.54309 33964 ft 352 kts 268°
2026-05-05 09:05 51.63578 0.46462 33964 ft 352 kts 268°
2026-05-05 09:06 51.63833 0.38929 33964 ft 352 kts 268°
2026-05-05 09:06 51.64104 0.31258 33965 ft 353 kts 269°
2026-05-05 09:07 51.64962 0.23488 33965 ft 361 kts 277°
2026-05-05 09:07 51.66682 0.15800 33965 ft 371 kts 284°
2026-05-05 09:08 51.69285 0.08486 33462 ft 386 kts 293°
2026-05-05 09:08 51.70960 0.05001 33033 ft 396 kts 298°
2026-05-05 09:08 51.72822 0.01716 32611 ft 403 kts 301°
2026-05-05 09:08 51.74756 -0.01538 32187 ft 406 kts 301°
2026-05-05 09:09 51.76740 -0.04837 31756 ft 408 kts 302°
2026-05-05 09:09 51.78732 -0.08138 31328 ft 411 kts 302°
2026-05-05 09:09 51.80676 -0.11355 30912 ft 412 kts 302°
2026-05-05 09:09 51.82633 -0.14582 30488 ft 404 kts 302°
2026-05-05 09:10 51.84580 -0.17789 30059 ft 396 kts 302°
2026-05-05 09:10 51.86461 -0.20896 29636 ft 388 kts 302°
2026-05-05 09:10 51.88322 -0.23979 29209 ft 381 kts 302°
2026-05-05 09:10 51.90167 -0.27044 28777 ft 375 kts 302°
2026-05-05 09:11 51.91940 -0.30001 28357 ft 368 kts 303°
2026-05-05 09:11 51.93722 -0.32975 27925 ft 362 kts 303°
2026-05-05 09:11 51.95460 -0.35879 27499 ft 359 kts 303°
2026-05-05 09:11 51.97184 -0.38766 27074 ft 358 kts 303°
2026-05-05 09:12 51.98876 -0.41601 26656 ft 356 kts 303°
2026-05-05 09:12 52.00578 -0.44455 26233 ft 355 kts 303°
2026-05-05 09:12 52.02280 -0.47310 25808 ft 353 kts 303°
2026-05-05 09:12 52.03974 -0.50154 25383 ft 352 kts 303°
2026-05-05 09:13 52.05662 -0.52990 24957 ft 350 kts 304°
2026-05-05 09:13 52.06781 -0.54873 24674 ft 349 kts 304°
2026-05-05 09:13 52.09020 -0.58642 24105 ft 347 kts 304°
2026-05-05 09:13 52.10666 -0.61414 23683 ft 346 kts 304°
2026-05-05 09:14 52.12336 -0.64211 23257 ft 345 kts 304°
2026-05-05 09:14 52.13973 -0.66962 22839 ft 343 kts 304°
2026-05-05 09:14 52.15592 -0.69701 22419 ft 341 kts 304°
2026-05-05 09:14 52.17174 -0.72383 22007 ft 339 kts 304°
2026-05-05 09:15 52.18818 -0.75174 21576 ft 338 kts 304°
2026-05-05 09:15 52.20439 -0.77927 21150 ft 337 kts 304°
2026-05-05 09:15 52.22055 -0.80644 20726 ft 337 kts 306°
2026-05-05 09:15 52.23751 -0.83222 20304 ft 339 kts 310°
2026-05-05 09:16 52.25570 -0.85649 19879 ft 341 kts 313°
2026-05-05 09:16 52.27490 -0.87893 19455 ft 343 kts 317°
2026-05-05 09:16 52.29494 -0.89963 19032 ft 344 kts 319°
2026-05-05 09:16 52.31516 -0.91980 18609 ft 342 kts 320°
2026-05-05 09:17 52.33546 -0.93997 18182 ft 341 kts 320°
2026-05-05 09:17 52.35499 -0.95939 17769 ft 339 kts 320°
2026-05-05 09:17 52.37453 -0.97887 17302 ft 339 kts 320°
2026-05-05 09:17 52.39446 -0.99879 16803 ft 337 kts 321°
2026-05-05 09:18 52.41427 -1.01861 16305 ft 336 kts 321°
2026-05-05 09:18 52.42726 -1.03162 15977 ft 335 kts 321°
2026-05-05 09:18 52.45375 -1.05817 15307 ft 334 kts 321°
2026-05-05 09:18 52.47355 -1.07802 14804 ft 332 kts 321°
2026-05-05 09:19 52.48552 -1.09003 14499 ft 332 kts 322°
2026-05-05 09:19 52.50447 -1.10906 14115 ft 327 kts 322°
2026-05-05 09:19 52.52218 -1.12684 13770 ft 324 kts 322°
2026-05-05 09:19 52.54795 -1.15280 13264 ft 323 kts 322°
2026-05-05 09:20 52.56679 -1.17180 12893 ft 321 kts 322°
2026-05-05 09:20 52.58530 -1.19044 12526 ft 320 kts 322°
2026-05-05 09:20 52.59778 -1.20303 12278 ft 319 kts 322°
2026-05-05 09:20 52.62234 -1.22785 12014 ft 317 kts 322°
2026-05-05 09:21 52.63514 -1.24081 12010 ft 318 kts 322°
2026-05-05 09:21 52.65997 -1.26597 12007 ft 318 kts 322°
2026-05-05 09:21 52.67813 -1.28438 12006 ft 318 kts 322°
2026-05-05 09:21 52.69696 -1.30348 12006 ft 318 kts 322°
2026-05-05 09:22 52.70958 -1.31629 12006 ft 318 kts 322°
2026-05-05 09:22 52.73476 -1.34184 12005 ft 318 kts 322°
2026-05-05 09:22 52.75343 -1.36083 12005 ft 318 kts 322°
2026-05-05 09:22 52.77225 -1.38001 12005 ft 318 kts 322°
2026-05-05 09:23 52.79128 -1.39943 12005 ft 318 kts 322°
2026-05-05 09:23 52.81007 -1.41864 12005 ft 318 kts 322°
2026-05-05 09:23 52.82876 -1.43777 12005 ft 318 kts 322°
2026-05-05 09:23 52.84757 -1.45704 12005 ft 318 kts 322°
2026-05-05 09:24 52.86584 -1.47577 12005 ft 318 kts 322°
2026-05-05 09:24 52.88458 -1.49502 12005 ft 318 kts 322°
2026-05-05 09:24 52.90321 -1.51418 12005 ft 318 kts 322°
2026-05-05 09:24 52.92023 -1.53169 12004 ft 318 kts 322°
2026-05-05 09:25 52.93274 -1.54458 11834 ft 319 kts 322°
2026-05-05 09:25 52.95757 -1.57022 11265 ft 315 kts 323°
2026-05-05 09:25 52.97514 -1.58837 10861 ft 312 kts 323°
2026-05-05 09:25 52.99259 -1.60641 10456 ft 310 kts 323°
2026-05-05 09:26 53.00453 -1.61877 10176 ft 308 kts 323°
2026-05-05 09:26 53.02248 -1.63731 9750 ft 305 kts 323°
2026-05-05 09:26 53.04518 -1.66222 9197 ft 301 kts 317°
2026-05-05 09:26 53.05526 -1.67600 8929 ft 297 kts 313°
2026-05-05 09:27 53.07402 -1.70844 8366 ft 291 kts 307°
2026-05-05 09:27 53.08651 -1.73273 8060 ft 285 kts 307°
2026-05-05 09:27 53.09901 -1.75721 8017 ft 269 kts 307°
2026-05-05 09:27 53.10678 -1.77226 8012 ft 260 kts 307°
2026-05-05 09:28 53.12224 -1.80207 7810 ft 253 kts 307°
2026-05-05 09:28 53.12973 -1.81653 7513 ft 254 kts 307°
2026-05-05 09:28 53.14507 -1.84634 6965 ft 254 kts 307°
2026-05-05 09:28 53.15638 -1.86835 6586 ft 253 kts 308°
2026-05-05 09:29 53.16765 -1.89047 6284 ft 249 kts 309°
2026-05-05 09:29 53.17501 -1.90476 6174 ft 243 kts 309°
2026-05-05 09:29 53.18864 -1.93116 5960 ft 231 kts 309°
2026-05-05 09:29 53.19832 -1.95012 5805 ft 224 kts 309°
2026-05-05 09:30 53.20832 -1.96961 5515 ft 221 kts 309°
2026-05-05 09:30 53.21419 -1.98335 5237 ft 223 kts 295°
2026-05-05 09:30 53.21624 -2.01595 5061 ft 226 kts 263°
2026-05-05 09:30 53.21327 -2.03999 5055 ft 229 kts 259°
2026-05-05 09:31 53.21057 -2.05811 5047 ft 229 kts 258°
2026-05-05 09:31 53.20340 -2.09191 5041 ft 234 kts 250°
2026-05-05 09:31 53.19696 -2.11626 5042 ft 232 kts 250°
2026-05-05 09:31 53.19046 -2.14026 5039 ft 233 kts 249°
2026-05-05 09:32 53.18608 -2.15638 5037 ft 233 kts 249°
2026-05-05 09:32 53.17820 -2.18973 5033 ft 233 kts 253°
2026-05-05 09:32 53.17279 -2.21498 5033 ft 233 kts 254°
2026-05-05 09:32 53.16948 -2.23064 5039 ft 232 kts 254°
2026-05-05 09:33 53.16259 -2.26431 5038 ft 229 kts 254°
2026-05-05 09:33 53.15922 -2.28097 5033 ft 230 kts 255°
2026-05-05 09:33 53.15274 -2.31494 5036 ft 230 kts 262°
2026-05-05 09:33 53.15084 -2.33875 5036 ft 227 kts 269°
2026-05-05 09:34 53.15112 -2.36275 5028 ft 227 kts 277°
2026-05-05 09:34 53.15226 -2.38159 5037 ft 227 kts 278°
2026-05-05 09:34 53.15412 -2.40680 4937 ft 223 kts 280°
2026-05-05 09:34 53.15595 -2.43258 4524 ft 226 kts 280°
2026-05-05 09:35 53.15827 -2.45838 4131 ft 226 kts 290°
2026-05-05 09:35 53.17886 -2.49465 3424 ft 222 kts 328°
2026-05-05 09:35 53.19126 -2.50751 3207 ft 217 kts 329°
2026-05-05 09:36 53.20414 -2.52028 3025 ft 210 kts 329°
2026-05-05 09:36 53.21674 -2.53273 2994 ft 212 kts 332°
2026-05-05 09:36 53.23046 -2.53866 2956 ft 211 kts
2026-05-05 09:36 53.24324 -2.53038 2969 ft 192 kts 40°
2026-05-05 09:37 53.25025 -2.51227 3046 ft 189 kts 63°
2026-05-05 09:37 53.25486 -2.49163 2805 ft 191 kts 69°
2026-05-05 09:37 53.25886 -2.47074 2550 ft 186 kts 64°
2026-05-05 09:37 53.26472 -2.45176 2379 ft 183 kts 55°
2026-05-05 09:38 53.27185 -2.43464 2127 ft 173 kts 49°
2026-05-05 09:38 53.27891 -2.41995 1896 ft 160 kts 46°
2026-05-05 09:38 53.28594 -2.40579 1689 ft 153 kts 47°
2026-05-05 09:38 53.29225 -2.39287 1477 ft 142 kts 47°
2026-05-05 09:39 53.29819 -2.38062 1301 ft 142 kts 47°
2026-05-05 09:39 53.30437 -2.36782 1111 ft 142 kts 47°
2026-05-05 09:39 53.31063 -2.35486 936 ft 144 kts 47°
2026-05-05 09:39 53.31691 -2.34182 750 ft 143 kts 47°
2026-05-05 09:40 53.32293 -2.32937 572 ft 142 kts 48°
2026-05-05 09:40 53.32894 -2.31700 390 ft 139 kts 48°
2026-05-05 09:40 53.33499 -2.30437 260 ft 132 kts 49°
2026-05-05 09:40 53.33894 -2.29623 259 ft 46 kts 51°
2026-05-05 09:41 53.34005 -2.29392 259 ft 23 kts 52°
2026-05-05 09:41 53.34130 -2.29143 259 ft 31 kts 52°
2026-05-05 09:41 53.34283 -2.28825 259 ft 36 kts 53°
2026-05-05 09:41 53.34465 -2.28565 259 ft 33 kts 28°
2026-05-05 09:42 53.34610 -2.28471 259 ft 17 kts 21°
2026-05-05 09:42 53.34718 -2.28377 259 ft 17 kts 44°
2026-05-05 09:42 53.34801 -2.28215 259 ft 18 kts 50°
2026-05-05 09:42 53.34883 -2.28047 259 ft 19 kts 51°
2026-05-05 09:43 53.34964 -2.27982 259 ft 10 kts 336°
2026-05-05 09:43 53.35028 -2.28058 259 ft 11 kts 322°
2026-05-05 09:43 53.35097 -2.28149 259 ft 13 kts 321°
2026-05-05 09:43 53.35180 -2.28198 259 ft 9 kts
2026-05-05 09:44 53.35195 -2.28196 259 ft 0 kts
2026-05-05 09:44 53.35203 -2.28195 259 ft 1 kts
2026-05-05 09:45 53.35223 -2.28192 259 ft 4 kts
2026-05-05 09:45 53.35259 -2.28187 259 ft 6 kts
2026-05-05 09:45 53.35315 -2.28146 259 ft 11 kts 40°
2026-05-05 09:45 53.35373 -2.28055 259 ft 9 kts 44°
2026-05-05 09:46 53.35424 -2.27974 259 ft 11 kts 44°
2026-05-05 09:46 53.35484 -2.27880 259 ft 12 kts 43°
2026-05-05 09:46 53.35553 -2.27774 259 ft 14 kts 43°
2026-05-05 09:46 53.35619 -2.27653 259 ft 12 kts 45°
2026-05-05 09:47 53.35676 -2.27612 259 ft 7 kts 351°
2026-05-05 09:47 53.35733 -2.27640 259 ft 9 kts 341°
2026-05-05 09:47 53.35793 -2.27700 259 ft 11 kts 317°
2026-05-05 09:47 53.35854 -2.27788 259 ft 12 kts 317°
2026-05-05 09:48 53.35908 -2.27847 259 ft 5 kts 354°
2026-05-05 09:48 53.35945 -2.27842 259 ft 5 kts
2026-05-05 09:48 53.35988 -2.27834 259 ft 7 kts
2026-05-05 09:48 53.36043 -2.27831 259 ft 8 kts 347°
2026-05-05 09:49 53.36097 -2.27896 259 ft 10 kts 316°
2026-05-05 09:49 53.36151 -2.27993 259 ft 12 kts 313°
2026-05-05 09:49 53.36215 -2.28102 259 ft 13 kts 316°
2026-05-05 09:49 53.36287 -2.28221 259 ft 15 kts 316°
2026-05-05 09:50 53.36364 -2.28352 259 ft 16 kts 315°
2026-05-05 09:50 53.36446 -2.28490 259 ft 15 kts 315°
2026-05-05 09:50 53.36502 -2.28582 259 ft 11 kts 316°
2026-05-05 09:50 53.36563 -2.28688 259 ft 13 kts 307°
2026-05-05 09:51 53.36612 -2.28829 259 ft 14 kts 298°
2026-05-05 09:51 53.36680 -2.28948 259 ft 15 kts 330°
2026-05-05 09:51 53.36773 -2.29027 259 ft 15 kts 358°
2026-05-05 09:51 53.36868 -2.28940 259 ft 14 kts 45°
2026-05-05 09:52 53.36912 -2.28867 259 ft 3 kts 44°
2026-05-05 09:52 53.36919 -2.28832 259 ft 3 kts 116°
2026-05-05 09:52 53.36905 -2.28801 259 ft 2 kts 132°
2026-05-05 09:52 53.36899 -2.28790 259 ft 0 kts 132°